EW5043 Weather Reports


Display with metric or nautical units.
time (UTC)temp
F
wind
direction
speed
MPH
gust
MPH
rain 1hr
in
rain 24hr
in
rain mn
in
humidity
%
barometer
mb
20260504231624 72 279 1.0 0.0 0.00 0.00 0.00 40 1000.5
20260504230115 72 279 1.0 0.0 0.00 0.00 0.00 38 1000.3
20260504224508 71 279 0.0 0.0 0.00 0.00 0.00 40 1000.4
20260504223102 70 349 0.0 0.0 0.00 0.00 0.00 43 1000.7
20260504221549 70 349 1.0 0.0 0.00 0.00 0.00 44 1000.8
20260504220141 69 349 2.0 0.0 0.00 0.00 0.00 43 1000.8
20260504214528 69 344 1.0 0.0 0.00 0.00 0.00 43 1000.9
20260504213022 69 344 2.0 0.0 0.00 0.00 0.00 44 1001.1
20260504211610 69 344 2.0 0.0 0.00 0.00 0.00 44 1001.1
20260504210104 68 344 1.0 0.0 0.00 0.00 0.00 47 1001.3
20260504204602 67 344 2.0 0.0 0.00 0.00 0.00 47 1001.4
20260504203043 66 344 2.0 0.0 0.00 0.00 0.00 49 1001.6
20260504201532 66 323 1.0 0.0 0.00 0.00 0.00 48 1001.7
20260504200022 66 323 1.0 0.0 0.00 0.00 0.00 49 1001.9
20260504194616 65 323 2.0 0.0 0.00 0.00 0.00 50 1002.1
20260504191556 64 319 1.0 0.0 0.00 0.00 0.00 52 1002.4
20260504184539 63 319 2.0 0.0 0.00 0.00 0.00 53 1002.8
20260504183032 62 316 1.0 0.0 0.00 0.00 0.00 53 1003.0
20260504181522 62 315 2.0 0.0 0.00 0.00 0.00 52 1003.0
20260504180010 61 313 2.0 0.0 0.00 0.00 0.00 51 1003.0
20260504174501 63 340 3.0 0.0 0.00 0.00 0.00 54 1003.4
20260504173055 65 304 5.0 0.0 0.00 0.00 0.00 52 1003.4
20260504171644 66 309 6.0 0.0 0.00 0.00 0.00 50 1003.4
20260504081621 54 215 4.0 0.0 0.00 0.00 0.00 53 1005.6
20260504050024 51 178 4.0 0.0 0.00 0.00 0.00 100 1006.6
20260504044520 51 178 4.0 0.0 0.00 0.00 0.00 100 1006.8
20260504043007 51 178 6.0 0.0 0.00 0.00 0.00 100 1006.9
20260504041658 51 178 5.0 0.0 0.00 0.00 0.00 100 1007.1
20260504040149 51 178 5.0 0.0 0.00 0.00 0.00 100 1007.1
20260504034639 51 178 5.0 0.0 0.00 0.00 0.01 100 1007.0
20260504033029 51 178 6.0 0.0 0.00 0.00 0.01 100 1007.2
20260504031521 50 178 5.0 0.0 0.00 0.00 0.01 100 1007.4
20260504030014 50 178 4.0 0.0 0.00 0.00 0.01 100 1007.5
20260504024702 50 178 5.0 0.0 0.00 0.00 0.01 100 1007.5
20260504023050 50 188 2.0 0.0 0.00 0.00 0.01 100 1007.6
20260504021543 49 291 0.0 0.0 0.00 0.00 0.01 100 1007.8
20260504020043 49 291 1.0 0.0 0.00 0.00 0.01 100 1007.8
20260504014533 49 291 3.0 0.0 0.00 0.00 0.01 100 1008.1
20260504013029 48 294 2.0 0.0 0.00 0.00 0.01 100 1008.1
20260504011604 48 295 4.0 0.0 0.00 0.00 0.01 100 1008.3
20260504010053 49 302 8.0 0.0 0.00 0.00 0.01 100 1008.5
20260504004615 52 306 8.0 0.0 0.00 0.00 0.00 13 1008.1
20260504003138 53 306 7.0 0.0 0.00 0.00 0.00 50 1008.2
20260504001527 53 303 1.0 0.0 0.00 0.00 0.00 54 1007.9
20260504000018 53 11 0.0 0.0 0.00 0.00 0.00 52 1007.5
20260503234508 54 10 0.0 0.0 0.00 0.00 0.00 52 1007.3
20260503233102 54 11 2.0 0.0 0.00 0.00 0.00 54 1007.0